Logansport, IN

6:44 PM EST on February 14, 2016 (GMT -0500)
Logansport Municipal

Weather History for KGGP - February, 2014

Change the Weather History Date:

Thursday, February 27, 2014

  Actual Average Record
Temperature  
Mean Temperature 13 °F -  
Max Temperature 21 °F 45 °F 33 °F (2013)
Min Temperature 5 °F 28 °F -5 °F (2015)
Degree Days  
Heating Degree Days 52    
Moisture  
Dew Point -1 °F    
Average Humidity 55    
Maximum Humidity 73    
Minimum Humidity 41    
Precipitation  
Precipitation 0.00 in - - ()
Sea Level Pressure  
Sea Level Pressure 29.98 in    
Wind  
Wind Speed 16 mph (NW)    
Max Wind Speed 30 mph    
Max Gust Speed 40 mph    
Visibility 10 miles    
Events Snow    
Averages and records for this station are not official NWS values.
T = Trace of Precipitation, MM = Missing Value Source: NWS Daily Summary

Daily Weather History Graph

Daily Weather History Graph

Search for Another Location

Airport or City:

Trip Planner

Search our weather history database for the weather conditions in past years. The results will help you decide how hot, cold, wet, or windy it might be!

Date:

Astronomy

Feb. 27, 2014 Rise Set
Actual Time 7:22 AM EST 6:34 PM EST
Civil Twilight 6:54 AM EST 7:02 PM EST
Nautical Twilight 6:23 AM EST 7:33 PM EST
Astronomical Twilight 5:51 AM EST 8:05 PM EST
Moon 5:54 AM EST (2/27) 4:59 PM EST (2/27)
Length of Visible Light 12h 07m
Length of Day
11h 12m
Waning Crescent, 4% of the Moon is Illuminated
Feb 27
Waning Crescent
Mar 1
New
Mar 8
First Quarter
Mar 16
Full
Mar 23
Last Quarter

Hourly Weather History & Observations

Time (EST) Temp. Windchill Dew Point Humidity Pressure Visibility Wind Dir Wind Speed Gust Speed Precip Events Conditions
12:10 AM 17.6 °F 0.9 °F 6.8 °F 63% 29.75 in 10.0 mi SW 20.7 mph - N/A   Overcast
12:35 AM 17.6 °F 0.9 °F 6.8 °F 63% 29.74 in 10.0 mi SW 20.7 mph 25.3 mph N/A   Overcast
12:55 AM 17.6 °F 0.9 °F 6.8 °F 63% 29.72 in 10.0 mi SW 20.7 mph 25.3 mph N/A   Overcast
1:15 AM 19.4 °F 2.5 °F 5.0 °F 54% 29.71 in 10.0 mi WSW 23.0 mph 32.2 mph N/A   Overcast
1:35 AM 19.4 °F 0.8 °F 6.8 °F 58% 29.70 in 10.0 mi WSW 28.8 mph 38.0 mph N/A   Overcast
1:55 AM 21.2 °F 3.0 °F 8.6 °F 58% 29.70 in 10.0 mi WSW 29.9 mph 40.3 mph N/A   Overcast
2:15 AM 21.2 °F 3.9 °F 8.6 °F 58% 29.69 in 10.0 mi WSW 26.5 mph 39.1 mph N/A   Overcast
2:35 AM 21.2 °F 3.5 °F 8.6 °F 58% 29.69 in 10.0 mi WSW 27.6 mph 36.8 mph N/A   Overcast
2:55 AM 19.4 °F 1.4 °F 8.6 °F 63% 29.69 in 10.0 mi WSW 26.5 mph 32.2 mph N/A   Mostly Cloudy
3:15 AM 19.4 °F 1.1 °F 8.6 °F 63% 29.68 in 10.0 mi WSW 27.6 mph 35.7 mph N/A   Mostly Cloudy
3:35 AM 19.4 °F 2.1 °F 10.4 °F 68% 29.69 in 10.0 mi West 24.2 mph 31.1 mph N/A   Mostly Cloudy
3:55 AM 19.4 °F 4.5 °F 10.4 °F 68% 29.69 in 10.0 mi West 17.3 mph 26.5 mph N/A   Mostly Cloudy
4:15 AM 19.4 °F 2.8 °F 8.6 °F 63% 29.69 in 10.0 mi West 21.9 mph 32.2 mph N/A   Mostly Cloudy
4:35 AM 19.4 °F 2.8 °F 8.6 °F 63% 29.70 in 10.0 mi West 21.9 mph 34.5 mph N/A   Mostly Cloudy
4:50 AM 19.4 °F 3.2 °F 6.8 °F 58% 29.71 in 10.0 mi West 20.7 mph 35.7 mph N/A   Scattered Clouds
5:15 AM 17.6 °F 0.5 °F 5.0 °F 58% 29.73 in 10.0 mi WNW 21.9 mph 27.6 mph N/A   Mostly Cloudy
5:35 AM 15.8 °F 0.9 °F 8.6 °F 73% 29.75 in 5.0 mi WNW 15.0 mph 26.5 mph N/A Snow Light Snow
5:55 AM 14.0 °F -1.4 °F 1.4 °F 57% 29.77 in 10.0 mi WNW 15.0 mph 28.8 mph N/A   Scattered Clouds
6:15 AM 14.0 °F -3.0 °F 3.2 °F 62% 29.79 in 10.0 mi West 18.4 mph 24.2 mph N/A   Scattered Clouds
6:35 AM 12.2 °F -3.7 °F 1.4 °F 62% 29.80 in 10.0 mi WNW 15.0 mph 25.3 mph N/A   Scattered Clouds
6:55 AM 12.2 °F -1.8 °F 1.4 °F 62% 29.82 in 10.0 mi WNW 11.5 mph 23.0 mph N/A   Clear
7:15 AM 12.2 °F -3.7 °F -0.4 °F 57% 29.84 in 10.0 mi WNW 15.0 mph 20.7 mph N/A   Clear
7:35 AM 12.2 °F -3.1 °F 1.4 °F 62% 29.86 in 7.0 mi WNW 13.8 mph 20.7 mph N/A   Mostly Cloudy
7:55 AM 10.4 °F -4.1 °F 1.4 °F 67% 29.88 in 10.0 mi WNW 11.5 mph 20.7 mph N/A   Overcast
8:15 AM 10.4 °F -1.5 °F 1.4 °F 67% 29.90 in 10.0 mi NW 8.1 mph 16.1 mph N/A   Mostly Cloudy
8:35 AM 12.2 °F -2.5 °F -4.0 °F 48% 29.92 in 10.0 mi NW 12.7 mph 20.7 mph N/A   Scattered Clouds
8:55 AM 12.2 °F -3.7 °F -5.8 °F 45% 29.93 in 10.0 mi NW 15.0 mph 23.0 mph N/A   Clear
9:15 AM 12.2 °F -3.1 °F -5.8 °F 45% 29.95 in 10.0 mi WNW 13.8 mph 21.9 mph N/A   Clear
9:30 AM 12.2 °F -2.5 °F -5.8 °F 45% 29.96 in 10.0 mi NW 12.7 mph 20.7 mph N/A   Clear
9:55 AM 12.2 °F -4.8 °F -4.0 °F 48% 29.98 in 10.0 mi WNW 17.3 mph 25.3 mph N/A   Scattered Clouds
10:15 AM 12.2 °F -3.7 °F -4.0 °F 48% 30.00 in 10.0 mi NW 15.0 mph 19.6 mph N/A   Mostly Cloudy
10:35 AM 12.2 °F -1.8 °F 1.4 °F 62% 30.01 in 7.0 mi NW 11.5 mph 24.2 mph N/A   Mostly Cloudy
10:55 AM 12.2 °F -3.1 °F 1.4 °F 62% 30.03 in 10.0 mi NW 13.8 mph 20.7 mph N/A   Overcast
11:15 AM 12.2 °F -1.0 °F -0.4 °F 57% 30.04 in 10.0 mi NW 10.4 mph - N/A   Mostly Cloudy
11:35 AM 14.0 °F 1.2 °F -4.0 °F 45% 30.05 in 10.0 mi NW 10.4 mph 24.2 mph N/A   Scattered Clouds
11:55 AM 14.0 °F 1.2 °F -2.2 °F 49% 30.05 in 10.0 mi NW 10.4 mph 21.9 mph N/A   Mostly Cloudy
12:15 PM 14.0 °F -1.4 °F -4.0 °F 45% 30.06 in 10.0 mi NNW 15.0 mph 20.7 mph N/A   Scattered Clouds
12:35 PM 14.0 °F -1.4 °F -4.0 °F 45% 30.07 in 10.0 mi NNW 15.0 mph 21.9 mph N/A   Scattered Clouds
12:55 PM 14.0 °F 0.5 °F -5.8 °F 41% 30.07 in 10.0 mi NW 11.5 mph - N/A   Scattered Clouds
1:15 PM 14.0 °F 0.5 °F -4.0 °F 45% 30.07 in 10.0 mi NNW 11.5 mph 19.6 mph N/A   Clear
1:35 PM 14.0 °F 2.0 °F -5.8 °F 41% 30.07 in 10.0 mi NW 9.2 mph 18.4 mph N/A   Clear
1:55 PM 14.0 °F 1.2 °F -4.0 °F 45% 30.08 in 10.0 mi NW 10.4 mph - N/A   Mostly Cloudy
2:15 PM 14.0 °F -0.8 °F -4.0 °F 45% 30.08 in 10.0 mi NW 13.8 mph 19.6 mph N/A   Scattered Clouds
2:35 PM 14.0 °F 1.2 °F -4.0 °F 45% 30.09 in 10.0 mi NW 10.4 mph - N/A   Clear
2:55 PM 14.0 °F 2.9 °F -5.8 °F 41% 30.10 in 10.0 mi NW 8.1 mph - N/A   Clear
3:15 PM 14.0 °F 1.2 °F -5.8 °F 41% 30.09 in 10.0 mi NW 10.4 mph 16.1 mph N/A   Clear
3:35 PM 14.0 °F 0.5 °F -4.0 °F 45% 30.09 in 10.0 mi NNW 11.5 mph 17.3 mph N/A   Clear
3:55 PM 14.0 °F 3.9 °F -4.0 °F 45% 30.10 in 10.0 mi NW 6.9 mph - N/A   Clear
4:15 PM 14.0 °F 8.2 °F -5.8 °F 41% 30.10 in 10.0 mi NW 3.5 mph - N/A   Clear
4:35 PM 14.0 °F 5.1 °F -4.0 °F 45% 30.10 in 10.0 mi NNW 5.8 mph - N/A   Clear
4:55 PM 14.0 °F 6.5 °F -4.0 °F 45% 30.11 in 10.0 mi NNW 4.6 mph - N/A   Clear
5:15 PM 14.0 °F 3.9 °F -4.0 °F 45% 30.11 in 10.0 mi NNW 6.9 mph - N/A   Clear
5:35 PM 12.2 °F -0.2 °F -5.8 °F 45% 30.12 in 10.0 mi North 9.2 mph - N/A   Clear
5:55 PM 12.2 °F -0.2 °F -4.0 °F 48% 30.12 in 10.0 mi North 9.2 mph - N/A   Clear
6:15 PM 12.2 °F 1.7 °F -5.8 °F 45% 30.14 in 10.0 mi North 6.9 mph - N/A   Clear
6:35 PM 10.4 °F 0.8 °F -5.8 °F 48% 30.14 in 10.0 mi NNW 5.8 mph - N/A   Clear
6:55 PM 8.6 °F 0.1 °F -4.0 °F 57% 30.15 in 10.0 mi North 4.6 mph - N/A   Clear
7:15 PM 8.6 °F -1.3 °F -4.0 °F 57% 30.15 in 10.0 mi North 5.8 mph - N/A   Clear
7:35 PM 8.6 °F 2.0 °F -4.0 °F 57% 30.16 in 10.0 mi North 3.5 mph - N/A   Clear
7:55 PM 8.6 °F 0.1 °F -4.0 °F 57% 30.16 in 10.0 mi NNE 4.6 mph - N/A   Clear
8:15 PM 8.6 °F 2.0 °F -4.0 °F 57% 30.17 in 10.0 mi NNE 3.5 mph - N/A   Clear
8:35 PM 8.6 °F 0.1 °F -4.0 °F 57% 30.16 in 10.0 mi NNE 4.6 mph - N/A   Clear
8:55 PM 8.6 °F 2.0 °F -4.0 °F 57% 30.16 in 10.0 mi NNE 3.5 mph - N/A   Clear
9:15 PM 8.6 °F 2.0 °F -4.0 °F 57% 30.17 in 10.0 mi NNE 3.5 mph - N/A   Clear
9:35 PM 8.6 °F - -4.0 °F 57% 30.17 in 10.0 mi Calm Calm - N/A   Clear
9:55 PM 6.8 °F -0.1 °F -4.0 °F 61% 30.18 in 10.0 mi NNE 3.5 mph - N/A   Clear
10:15 PM 6.8 °F - -4.0 °F 61% 30.19 in 10.0 mi Calm Calm - N/A   Clear
10:35 PM 6.8 °F - -2.2 °F 67% 30.19 in 10.0 mi Calm Calm - N/A   Clear
10:55 PM 6.8 °F - -2.2 °F 67% 30.19 in 10.0 mi Calm Calm - N/A   Clear
11:15 PM 5.0 °F -2.1 °F -2.2 °F 72% 30.19 in 10.0 mi ENE 3.5 mph - N/A   Clear
11:35 PM 5.0 °F -2.1 °F -2.2 °F 72% 30.19 in 10.0 mi ENE 3.5 mph - N/A   Clear
11:55 PM 5.0 °F -2.1 °F -2.2 °F 72% 30.19 in 10.0 mi ENE 3.5 mph - N/A   Clear